Mosinee, WI

4:35 PM CST on February 20, 2017 (GMT -0600)
Central Wisconsin

Weather History for KCWA - March, 2013

Change the Weather History Date:

Sunday, March 17, 2013

  Actual Average Record
Temperature  
Mean Temperature 14 °F -  
Max Temperature 23 °F 36 °F 77 °F (2012)
Min Temperature 6 °F 18 °F 6 °F (2013)
Degree Days  
Heating Degree Days 50    
Moisture  
Dew Point 6 °F    
Average Humidity 68    
Maximum Humidity 79    
Minimum Humidity 46    
Precipitation  
Precipitation 0.00 in - - ()
Sea Level Pressure  
Sea Level Pressure 30.14 in    
Wind  
Wind Speed 9 mph (NE)    
Max Wind Speed 13 mph    
Max Gust Speed 18 mph    
Visibility 10 miles    
Events      
Averages and records for this station are not official NWS values.
T = Trace of Precipitation, MM = Missing Value Source: NWS Daily Summary

Daily Weather History Graph

Daily Weather History Graph

Search for Another Location

Airport or City:

Trip Planner

Search our weather history database for the weather conditions in past years. The results will help you decide how hot, cold, wet, or windy it might be!

Date:

Astronomy

Mar. 17, 2013 Rise Set
Actual Time 7:06 AM CDT 7:07 PM CDT
Civil Twilight 6:37 AM CDT 7:36 PM CDT
Nautical Twilight 6:03 AM CDT 8:10 PM CDT
Astronomical Twilight 5:28 AM CDT 8:45 PM CDT
Moon 10:05 AM CDT (3/17) 12:28 AM CDT (3/17)
Length of Visible Light 12h 59m
Length of Day
12h 00m
Waxing Crescent, 31% of the Moon is Illuminated
Mar 17
Waxing Crescent
Mar 19
First Quarter
Mar 27
Full
Apr 2
Last Quarter
Apr 10
New

Hourly Weather History & Observations

Time (CDT) Temp. Windchill Dew Point Humidity Pressure Visibility Wind Dir Wind Speed Gust Speed Precip Events Conditions
12:15 AM 15.8 °F 3.4 °F 8.6 °F 73% 30.11 in 10.0 mi NNW 10.4 mph - N/A   Clear
12:35 AM 17.6 °F 6.4 °F 8.6 °F 68% 30.12 in 10.0 mi NNW 9.2 mph - N/A   Clear
12:55 AM 17.6 °F 6.4 °F 6.8 °F 63% 30.13 in 10.0 mi NNW 9.2 mph - N/A   Clear
1:15 AM 14.0 °F 5.1 °F 5.0 °F 67% 30.14 in 10.0 mi NNW 5.8 mph - N/A   Clear
1:35 AM 15.8 °F 4.2 °F 5.0 °F 62% 30.14 in 10.0 mi NNW 9.2 mph - N/A   Clear
1:55 AM 14.0 °F 2.0 °F 5.0 °F 67% 30.16 in 10.0 mi NNW 9.2 mph - N/A   Clear
2:15 AM 14.0 °F 2.9 °F 5.0 °F 67% 30.17 in 10.0 mi North 8.1 mph - N/A   Clear
2:35 AM 14.0 °F 2.0 °F 5.0 °F 67% 30.17 in 10.0 mi NNW 9.2 mph - N/A   Clear
2:55 AM 12.2 °F 2.9 °F 5.0 °F 73% 30.18 in 10.0 mi North 5.8 mph - N/A   Clear
3:15 AM 12.2 °F 0.7 °F 3.2 °F 67% 30.19 in 10.0 mi North 8.1 mph - N/A   Clear
3:35 AM 12.2 °F 1.7 °F 3.2 °F 67% 30.20 in 10.0 mi North 6.9 mph - N/A   Clear
3:55 AM 10.4 °F -2.4 °F 3.2 °F 73% 30.20 in 10.0 mi North 9.2 mph - N/A   Clear
4:15 AM 10.4 °F 0.8 °F 3.2 °F 73% 30.19 in 10.0 mi North 5.8 mph - N/A   Clear
4:35 AM 10.4 °F -0.4 °F 3.2 °F 73% 30.20 in 10.0 mi North 6.9 mph - N/A   Clear
5:15 AM 10.4 °F -2.4 °F 3.2 °F 73% 30.20 in 10.0 mi North 9.2 mph - N/A   Clear
5:35 AM 8.6 °F -2.6 °F 3.2 °F 79% 30.20 in 10.0 mi North 6.9 mph - N/A   Clear
5:45 AM 8.6 °F -2.6 °F 1.4 °F 73% 30.20 in 10.0 mi North 6.9 mph - N/A   Clear
6:45 AM 6.8 °F -7.8 °F 1.4 °F 79% 30.20 in 10.0 mi NNE 10.4 mph - N/A   Clear
7:45 AM 6.8 °F -5.9 °F 1.4 °F 79% 30.21 in 10.0 mi NE 8.1 mph - N/A   Clear
8:45 AM 8.6 °F -4.7 °F 1.4 °F 73% 30.23 in 10.0 mi ENE 9.2 mph - N/A   Clear
9:45 AM 10.4 °F -2.4 °F -0.4 °F 62% 30.25 in 10.0 mi East 9.2 mph - N/A   Clear
10:45 AM 12.2 °F -0.2 °F -0.4 °F 57% 30.26 in 10.0 mi SSE 9.2 mph - N/A   Clear
11:45 AM 15.8 °F 2.1 °F 1.4 °F 53% 30.23 in 10.0 mi SE 12.7 mph - N/A   Clear
1:45 PM 19.4 °F 7.9 °F 3.2 °F 49% 30.19 in 10.0 mi SSE 10.4 mph - N/A   Clear
2:45 PM 21.2 °F 12.6 °F 3.2 °F 46% 30.15 in 10.0 mi SSE 6.9 mph 16.1 mph N/A   Clear
3:53 PM 23.0 °F 12.4 °F 6.8 °F 50% 30.13 in 10.0 mi ESE 10.4 mph - N/A   Clear
4:50 PM 23.0 °F 13.1 °F 6.8 °F 50% 30.11 in 10.0 mi East 9.2 mph 17.3 mph N/A   Clear
5:45 PM 23.0 °F 13.1 °F 8.6 °F 54% 30.10 in 10.0 mi SE 9.2 mph - N/A   Clear
6:53 PM 21.2 °F 10.9 °F 8.6 °F 58% 30.07 in 10.0 mi ESE 9.2 mph - N/A   Clear
7:55 PM 19.4 °F 9.5 °F 10.4 °F 68% 30.07 in 10.0 mi ESE 8.1 mph - N/A   Clear
9:45 PM 17.6 °F 6.4 °F 12.2 °F 79% 30.05 in 10.0 mi ESE 9.2 mph 18.4 mph N/A   Clear
10:15 PM 17.6 °F 5.0 °F 12.2 °F 79% 30.04 in 10.0 mi ESE 11.5 mph 16.1 mph N/A   Clear
10:35 PM 17.6 °F 6.4 °F 12.2 °F 79% 30.04 in 10.0 mi ESE 9.2 mph - N/A   Clear
10:55 PM 17.6 °F 5.7 °F 12.2 °F 79% 30.03 in 10.0 mi ESE 10.4 mph 16.1 mph N/A   Clear
11:15 PM 17.6 °F 7.3 °F 12.2 °F 79% 30.03 in 10.0 mi ESE 8.1 mph - N/A   Clear
11:35 PM 17.6 °F 7.3 °F 12.2 °F 79% 30.02 in 10.0 mi ESE 8.1 mph - N/A   Clear
11:55 PM 17.6 °F 6.4 °F 12.2 °F 79% 30.01 in 10.0 mi East 9.2 mph - N/A   Clear